Oelwein, IA

8:05 AM CST on January 20, 2018 (GMT -0600)
Oelwein Municipal

Weather History for KOLZ - July, 2013

Change the Weather History Date:

Saturday, July 6, 2013

  Actual Average Record
Temperature  
Mean Temperature 76 °F -  
Max Temperature 87 °F 81 °F 99 °F (1948)
Min Temperature 66 °F 59 °F 47 °F (1967)
Cooling Degree Days 12    
Growing Degree Days 26 (Base 50)    
Moisture  
Dew Point 64 °F    
Average Humidity 65    
Maximum Humidity 88    
Minimum Humidity 43    
Precipitation  
Precipitation 0.00 in - - ()
Sea Level Pressure  
Sea Level Pressure 29.97 in    
Wind  
Wind Speed 11 mph (SSE)    
Max Wind Speed 16 mph    
Max Gust Speed 22 mph    
Visibility 10 miles    
Events      
Averages and records for this station are not official NWS values.
T = Trace of Precipitation, MM = Missing Value Source: NWS Daily Summary

Daily Weather History Graph

Daily Weather History Graph

Search for Another Location

Airport or City:

Trip Planner

Search our weather history database for the weather conditions in past years. The results will help you decide how hot, cold, wet, or windy it might be!

Date:

Astronomy

Jul. 06, 2013 Rise Set
Actual Time 5:36 AM CDT 8:48 PM CDT
Civil Twilight 5:02 AM CDT 9:22 PM CDT
Nautical Twilight 4:17 AM CDT 10:07 PM CDT
Astronomical Twilight 3:23 AM CDT 11:00 PM CDT
Moon 4:24 AM CDT (7/6) 7:28 PM CDT (7/6)
Length of Visible Light 16h 20m
Length of Day
15h 11m
Waning Crescent, 2% of the Moon is Illuminated
Jul 6
Waning Crescent
Jul 8
New
Jul 15
First Quarter
Jul 22
Full
Jul 29
Last Quarter

Hourly Weather History & Observations

Time (CDT) Temp. Heat Index Dew Point Humidity Pressure Visibility Wind Dir Wind Speed Gust Speed Precip Events Conditions
12:15 AM 69.8 °F - 62.6 °F 78% 29.99 in 10.0 mi SSE 10.4 mph - N/A   Clear
12:35 AM 69.8 °F - 62.6 °F 78% 29.99 in 10.0 mi SSE 10.4 mph - N/A   Clear
12:55 AM 71.6 °F - 62.6 °F 73% 30.00 in 10.0 mi SSE 12.7 mph - N/A   Clear
1:15 AM 71.6 °F - 62.6 °F 73% 30.00 in 10.0 mi South 11.5 mph - N/A   Clear
1:35 AM 69.8 °F - 62.6 °F 78% 30.00 in 10.0 mi SSE 10.4 mph - N/A   Clear
1:55 AM 69.8 °F - 62.6 °F 78% 30.00 in 10.0 mi South 10.4 mph - N/A   Clear
2:15 AM 69.8 °F - 62.6 °F 78% 30.00 in 10.0 mi SSE 10.4 mph - N/A   Clear
2:35 AM 68.0 °F - 62.6 °F 83% 30.01 in 10.0 mi SSE 9.2 mph - N/A   Clear
2:55 AM 68.0 °F - 62.6 °F 83% 30.01 in 10.0 mi SSE 8.1 mph - N/A   Clear
3:15 AM 68.0 °F - 62.6 °F 83% 30.01 in 10.0 mi SSE 9.2 mph - N/A   Clear
3:35 AM 68.0 °F - 62.6 °F 83% 30.00 in 10.0 mi South 9.2 mph - N/A   Clear
3:55 AM 68.0 °F - 62.6 °F 83% 30.00 in 10.0 mi SSE 9.2 mph - N/A   Clear
4:15 AM 66.2 °F - 62.6 °F 88% 30.00 in 10.0 mi SSE 6.9 mph - N/A   Clear
4:35 AM 66.2 °F - 62.6 °F 88% 30.00 in 10.0 mi SSE 8.1 mph - N/A   Clear
4:55 AM 66.2 °F - 62.6 °F 88% 30.00 in 10.0 mi SSE 9.2 mph - N/A   Clear
5:15 AM 66.2 °F - 62.6 °F 88% 30.00 in 10.0 mi SSE 9.2 mph - N/A   Clear
5:35 AM 66.2 °F - 62.6 °F 88% 30.00 in 8.0 mi SSE 9.2 mph - N/A   Clear
5:55 AM 66.2 °F - 62.6 °F 88% 30.00 in 7.0 mi SSE 9.2 mph - N/A   Clear
6:15 AM 66.2 °F - 62.6 °F 88% 30.00 in 7.0 mi SSE 9.2 mph - N/A   Clear
6:35 AM 66.2 °F - 62.6 °F 88% 30.01 in 7.0 mi SSE 10.4 mph - N/A   Clear
6:55 AM 68.0 °F - 62.6 °F 83% 30.01 in 8.0 mi South 9.2 mph - N/A   Clear
7:15 AM 68.0 °F - 62.6 °F 83% 30.01 in 9.0 mi South 10.4 mph - N/A   Clear
7:35 AM 69.8 °F - 62.6 °F 78% 30.01 in 10.0 mi South 10.4 mph - N/A   Clear
7:55 AM 71.6 °F - 62.6 °F 73% 30.01 in 10.0 mi South 11.5 mph - N/A   Clear
8:15 AM 71.6 °F - 62.6 °F 73% 30.02 in 10.0 mi South 12.7 mph - N/A   Clear
8:35 AM 73.4 °F - 62.6 °F 69% 30.01 in 10.0 mi South 12.7 mph - N/A   Clear
8:55 AM 75.2 °F - 62.6 °F 65% 30.01 in 10.0 mi South 13.8 mph - N/A   Clear
9:15 AM 75.2 °F - 62.6 °F 65% 30.00 in 10.0 mi South 13.8 mph - N/A   Clear
9:35 AM 77.0 °F - 64.4 °F 65% 30.00 in 10.0 mi South 13.8 mph - N/A   Clear
9:55 AM 78.8 °F - 64.4 °F 61% 30.00 in 10.0 mi South 15.0 mph - N/A   Clear
10:15 AM 78.8 °F - 64.4 °F 61% 29.99 in 10.0 mi South 11.5 mph - N/A   Clear
10:35 AM 80.6 °F 82.3 °F 64.4 °F 58% 29.98 in 10.0 mi South 11.5 mph 18.4 mph N/A   Clear
10:55 AM 82.4 °F 83.9 °F 64.4 °F 54% 29.98 in 9.0 mi South 11.5 mph - N/A   Clear
11:15 AM 84.2 °F 85.6 °F 64.4 °F 51% 29.98 in 9.0 mi South 12.7 mph - N/A   Clear
11:35 AM 84.2 °F 85.6 °F 64.4 °F 51% 29.98 in 10.0 mi South 11.5 mph 19.6 mph N/A   Clear
11:55 AM 84.2 °F 85.6 °F 64.4 °F 51% 29.98 in 10.0 mi South 13.8 mph 20.7 mph N/A   Clear
12:15 PM 84.2 °F 85.6 °F 64.4 °F 51% 29.98 in 10.0 mi South 15.0 mph - N/A   Clear
12:35 PM 86.0 °F 87.3 °F 64.4 °F 48% 29.97 in 10.0 mi SSE 12.7 mph 19.6 mph N/A   Clear
12:55 PM 86.0 °F 87.3 °F 64.4 °F 48% 29.97 in 10.0 mi South 11.5 mph 18.4 mph N/A   Clear
1:15 PM 86.0 °F 87.3 °F 64.4 °F 48% 29.97 in 10.0 mi SSE 13.8 mph 19.6 mph N/A   Clear
1:35 PM 87.8 °F 89.4 °F 64.4 °F 46% 29.96 in 10.0 mi South 12.7 mph 19.6 mph N/A   Clear
1:55 PM 87.8 °F 89.4 °F 64.4 °F 46% 29.96 in 10.0 mi South 10.4 mph 17.3 mph N/A   Clear
2:15 PM 87.8 °F 89.4 °F 64.4 °F 46% 29.96 in 10.0 mi South 10.4 mph - N/A   Clear
2:35 PM 87.8 °F 89.4 °F 64.4 °F 46% 29.96 in 10.0 mi South 15.0 mph - N/A   Partly Cloudy
2:55 PM 87.8 °F 89.4 °F 64.4 °F 46% 29.95 in 10.0 mi South 11.5 mph 19.6 mph N/A   Partly Cloudy
3:15 PM 87.8 °F 89.4 °F 64.4 °F 46% 29.95 in 10.0 mi South 13.8 mph 21.9 mph N/A   Partly Cloudy
3:35 PM 87.8 °F 89.4 °F 64.4 °F 46% 29.95 in 10.0 mi South 15.0 mph 21.9 mph N/A   Clear
3:55 PM 87.8 °F 89.4 °F 64.4 °F 46% 29.95 in 10.0 mi South 15.0 mph 20.7 mph N/A   Scattered Clouds
4:15 PM 87.8 °F 89.4 °F 64.4 °F 46% 29.94 in 10.0 mi SSE 15.0 mph 21.9 mph N/A   Partly Cloudy
4:35 PM 87.8 °F 89.4 °F 64.4 °F 46% 29.94 in 10.0 mi SSE 13.8 mph 20.7 mph N/A   Partly Cloudy
4:55 PM 87.8 °F 89.4 °F 64.4 °F 46% 29.94 in 10.0 mi South 11.5 mph 20.7 mph N/A   Partly Cloudy
5:15 PM 87.8 °F 88.5 °F 62.6 °F 43% 29.93 in 10.0 mi SSE 15.0 mph 20.7 mph N/A   Partly Cloudy
5:35 PM 87.8 °F 89.4 °F 64.4 °F 46% 29.93 in 10.0 mi South 12.7 mph 20.7 mph N/A   Clear
5:55 PM 87.8 °F 89.4 °F 64.4 °F 46% 29.93 in - SSE 12.7 mph 20.7 mph N/A   Clear
6:15 PM 86.0 °F 87.3 °F 64.4 °F 48% 29.92 in 10.0 mi SSE 15.0 mph - N/A   Clear
6:35 PM 86.0 °F 87.3 °F 64.4 °F 48% 29.92 in 10.0 mi SSE 15.0 mph 20.7 mph N/A   Clear
6:55 PM 86.0 °F 87.3 °F 64.4 °F 48% 29.92 in 10.0 mi SSE 16.1 mph - N/A   Clear
7:15 PM 86.0 °F 87.3 °F 64.4 °F 48% 29.93 in 10.0 mi South 12.7 mph 19.6 mph N/A   Clear
7:35 PM 84.2 °F 85.6 °F 64.4 °F 51% 29.92 in 10.0 mi SSE 13.8 mph 19.6 mph N/A   Clear
7:55 PM 82.4 °F 83.9 °F 64.4 °F 54% 29.92 in 10.0 mi SSE 12.7 mph 18.4 mph N/A   Clear
8:15 PM 82.4 °F 84.6 °F 66.2 °F 58% 29.93 in 10.0 mi SSE 9.2 mph - N/A   Clear
8:35 PM 80.6 °F 82.7 °F 66.2 °F 61% 29.93 in 10.0 mi SSE 10.4 mph - N/A   Clear
8:55 PM 78.8 °F - 66.2 °F 65% 29.94 in 10.0 mi SSE 9.2 mph - N/A   Clear
9:15 PM 78.8 °F - 66.2 °F 65% 29.94 in 10.0 mi SSE 9.2 mph - N/A   Clear
9:35 PM 77.0 °F - 66.2 °F 69% 29.95 in 10.0 mi SSE 9.2 mph - N/A   Clear
9:55 PM 77.0 °F - 66.2 °F 69% 29.95 in 10.0 mi SSE 9.2 mph - N/A   Clear
10:15 PM 75.2 °F - 66.2 °F 73% 29.96 in 10.0 mi SSE 8.1 mph - N/A   Clear
10:35 PM 75.2 °F - 66.2 °F 73% 29.96 in 10.0 mi SSE 9.2 mph - N/A   Clear
10:55 PM 75.2 °F - 66.2 °F 73% 29.96 in 10.0 mi SSE 9.2 mph - N/A   Clear
11:15 PM 75.2 °F - 66.2 °F 73% 29.96 in 10.0 mi SSE 9.2 mph - N/A   Clear
11:35 PM 75.2 °F - 66.2 °F 73% 29.96 in 10.0 mi SSE 10.4 mph - N/A   Clear
11:55 PM 75.2 °F - 66.2 °F 73% 29.96 in 10.0 mi SSE 10.4 mph - N/A   Clear